Regional Weather Roundup
Issued by NWS Charleston, SC

Current Version | Previous Version | Text Only | Print | Product List | Glossary Off
Versions: 1 2 3 4 5 6 7 8 9 10 11 12 13 14 15 16 17 18 19 20 21 22 23 24 25 26 27 28 29 30 31 32 33 34 35 36 37 38 39 40 41 42 43 44 45 46 47 48 49 50

889
ASUS42 KCHS 251712
RWRCHS

REGIONAL WEATHER ROUNDUP
NATIONAL WEATHER SERVICE CHARLESTON SC
100 PM EDT SAT MAR 25 2017

NOTE: "FAIR" INDICATES FEW OR NO CLOUDS BELOW 12,000 FEET WITH NO
SIGNIFICANT WEATHER AND/OR OBSTRUCTIONS TO VISIBILITY.

NOT ALL STATIONS ARE QUALITY CONTROLLED. USE DATA WITH CAUTION...
ESPECIALLY DEWPOINT OBSERVATIONS.

SCZ027-030-031-034>040-042>050-251800-
...SOUTHEAST SOUTH CAROLINA...

CITY           SKY/WX    TMP DP  RH WIND       PRES   REMARKS
N CHARLESTON   CLOUDY    74  51  44 SE16      30.33F
WATERFRONT PRK   N/A     65  56  72 SE7       30.33F
JOHNS ISLAND   CLOUDY    73  54  49 SE10      30.34F
PINOPOLIS        N/A     73  52  46 VRB3      30.25F
MONCKS CORNER  CLOUDY    73  46  38 S6        30.32F
SUMMERVILLE    PTSUNNY   72  50  46 S7        30.33F
BEAUFORT MCAS  PTSUNNY   75  58  55 SE6       30.32F
BEAUFORT ARPT  FAIR      73  54  49 S9G18     30.32F
HILTON HEAD IS MOSUNNY   68  55  64 SE8       30.33F
WALTERBORO     CLOUDY    72  54  53 SE8G17    30.33F
ALLENDALE      CLOUDY    73  50  43 S10       30.30S

...SOUTHERN MIDLANDS AND PEE DEE...

CITY           SKY/WX    TMP DP  RH WIND       PRES   REMARKS
GEORGETOWN     CLOUDY    72  52  49 S5        30.35S
KINGSTREE      PTSUNNY   73  45  35 S7        30.32F
ORANGEBURG     CLOUDY    74  49  41 S10       30.31F
BARNWELL       PTSUNNY   73  54  49 S9G16     30.30F
AIKEN          CLOUDY    70  52  52 S8        30.33F
MANNING        FAIR      72  50  46 SW6G16    30.32F
COLUMBIA       CLOUDY    74  50  42 S9        30.30F
SUMTER         PTSUNNY   75  49  39 S8        30.29F
FLORENCE       PTSUNNY   72  50  45 SW12G17   30.32F
MYRTLE BEACH   CLOUDY    72  54  53 S14       30.35
N MYRTLE BEACH CLOUDY    69  54  58 S9        30.34F

$$

GAZ063-065-086>088-099>101-113>116-118-119-134>141-150-251800-
...SOUTHEAST GEORGIA...

CITY           SKY/WX    TMP DP  RH WIND       PRES   REMARKS
SAVANNAH ARPT  CLOUDY    75  51  43 S12       30.31F
HUNTER AAF     MOSUNNY   75  56  51 S12       30.29S
FORT STEWART   PTSUNNY   74  53  48 SE10      30.28F
STATESBORO     PTSUNNY   76  55  47 S8G18     30.30S
SYLVANIA       PTSUNNY  N/A N/A N/A S7        30.31S
CLAXTON        FAIR      74  57  54 E9        30.29F

...CSRA...CENTRAL AND FAR SOUTHEAST GEORGIA...

CITY           SKY/WX    TMP DP  RH WIND       PRES   REMARKS
THOMSON        CLOUDY    72  53  51 SW9       30.33F
AUGUSTA-BUSH   CLOUDY    75  54  47 S9        30.28F
AUGUSTA-DANIEL CLOUDY    73  51  46 S12       30.29F
SWAINSBORO     CLOUDY    73  52  46 SE7       30.29F
VIDALIA        PTSUNNY   75  55  50 S10       30.28F
EASTMAN        PTSUNNY   75  41  29 S10       30.29F
HAZLEHURST     PTSUNNY   75  57  53 S8        30.27S
ALMA           MOSUNNY   76  56  49 SE13      30.27F
WAYCROSS       MOSUNNY   80  61  52 SE15      30.28F
JESUP          PTSUNNY   77  54  44 SE9G17    30.29F
BAXLEY         CLOUDY    75  59  57 SE8       30.27F
BRUNSWICK      CLOUDY    77  57  50 SE10      30.31F
SAINT SIMONS   CLOUDY    73  56  54 SE9       30.30F

$$

SCZ027-028-034-036>038-045-046-048>050-GAZ119-141-251800-
...LAKE AND SUPPLEMENTAL COASTAL OBSERVATIONS...

STATION/POSITION TIME  TEMP    WIND        PRES    WAVE   SWELL
                       AIR SEA DIR/SP/G            HT/PER HT/PER/DIR
                 (UTC) (F)     (DEG/KT/KT) (MB)    (FT/S) (FT/S/D)
WINYAH BAY       1545   67     140/  4     1028.0
LAKE MURRAY      1620   66     200/  7/  9 1025.7
ACE BASIN NERRS  NOT AVBL
FORT PULASKI     1648   65 61   80/  9/ 14 1026.9F
SAPELO ISLAND    1600   76     120/  9     1027.0

$$

ANZ835-935-AMZ111-154-330-350-352-354-370-450-454-472-251800-
...C-MAN AND BUOY OBSERVATIONS...

STATION/POSITION TIME  TEMP    WIND        PRES    WAVE   SWELL
                       AIR SEA DIR/SP/G            HT/PER HT/PER/DIR
                 (UTC) (F)     (DEG/KT/KT) (MB)    (FT/S) (FT/S/D)
BUOY 41004       1650   70 70  130/ 14/ 16 1027.0F   5/ 6   3/130/ 8
BUOY 41008       1550   66 62   90/  8/ 10 1026.8    4/ 9   3/100/ 9
FOLLY BEACH CMAN 1600   64      80/  7/  8 1028.1F
CAPERS NEARSHORE 1608   63     100/  4/  6 1027.7F
FRIPP NEARSHORE  1608   63 60  100/  4/  6 1027.2S


STATION/POSITION TIME  TEMP    WIND        PRES    WAVE   SWELL
                       AIR SEA DIR/SP/G            HT/PER HT/PER/DIR
                 (UTC) (F)     (DEG/KT/KT) (MB)    (FT/S) (FT/S/D)
5E ST. MARYS GA  1630      65                N/A     4/ 9   2/120/11
FRYING PAN BUOY  1650   69 72  160/ 12/ 16 1027.8F   4/ 9   3/130/ 9
BUOY 41025       1650   69 76  240/ 14/ 17 1027.3F   3/ 8   2/200/ 8
CAPE LOOKOUT NC  1600   71     210/ 11/ 13 1027.7F
BUOY 41002       1650   66 73   80/ 12/ 14 1029.2F   4/ 7   3/120/ 7
BUOY 41010       NOT AVBL
ST AUGUSTINE FL  1700   68 67  120/  8/  9 1026.5F


$$




USA.gov is the U.S. government's official web portal to all federal, state and local government web resources and services.